TimeEST,TemperatureF,Dew PointF,Humidity,Sea Level PressureIn,VisibilityMPH,Wind Direction,Wind SpeedMPH,Gust SpeedMPH,PrecipitationIn,Events,Conditions,WindDirDegrees,DateUTC
12:53 AM,35.1,28.0,76,30.28,10.0,North,5.8,-,N/A,,Clear,360,2012-11-16 05:53:00
1:53 AM,36.0,27.0,70,30.29,10.0,North,5.8,-,N/A,,Clear,360,2012-11-16 06:53:00
2:53 AM,36.0,25.0,64,30.29,10.0,North,5.8,-,N/A,,Clear,360,2012-11-16 07:53:00
3:53 AM,35.1,27.0,72,30.29,10.0,NNW,4.6,-,N/A,,Clear,340,2012-11-16 08:53:00
4:53 AM,35.1,26.1,70,30.29,10.0,North,4.6,-,N/A,,Clear,350,2012-11-16 09:53:00
5:53 AM,35.1,26.1,70,30.29,10.0,NNW,6.9,-,N/A,,Clear,340,2012-11-16 10:53:00
6:53 AM,35.1,26.1,70,30.30,10.0,North,4.6,-,N/A,,Clear,360,2012-11-16 11:53:00
7:53 AM,36.0,26.1,67,30.32,10.0,North,5.8,-,N/A,,Clear,350,2012-11-16 12:53:00
8:53 AM,37.9,27.0,65,30.33,10.0,North,6.9,-,N/A,,Clear,10,2012-11-16 13:53:00
9:53 AM,41.0,26.1,55,30.34,10.0,North,8.1,-,N/A,,Clear,10,2012-11-16 14:53:00
10:53 AM,43.0,26.1,51,30.32,10.0,NNE,9.2,-,N/A,,Clear,30,2012-11-16 15:53:00
11:53 AM,44.1,27.0,51,30.31,10.0,ENE,6.9,-,N/A,,Clear,70,2012-11-16 16:53:00
1:53 PM,46.9,28.0,48,30.30,10.0,ENE,3.5,-,N/A,,Clear,70,2012-11-16 18:53:00
2:53 PM,48.9,28.0,44,30.31,10.0,North,5.8,-,N/A,,Clear,10,2012-11-16 19:53:00
3:53 PM,48.0,26.1,42,30.32,10.0,North,8.1,-,N/A,,Clear,10,2012-11-16 20:53:00
4:53 PM,44.1,26.1,49,30.32,10.0,Calm,Calm,-,N/A,,Clear,0,2012-11-16 21:53:00
5:53 PM,41.0,26.1,55,30.35,10.0,North,3.5,-,N/A,,Clear,350,2012-11-16 22:53:00
6:53 PM,37.9,26.1,62,30.36,10.0,Calm,Calm,-,N/A,,Clear,0,2012-11-16 23:53:00
7:53 PM,35.1,25.0,67,30.38,10.0,North,3.5,-,N/A,,Clear,10,2012-11-17 00:53:00
8:53 PM,34.0,26.1,73,30.40,10.0,NNW,4.6,-,N/A,,Clear,340,2012-11-17 01:53:00
9:53 PM,32.0,26.1,79,30.41,10.0,North,3.5,-,N/A,,Clear,360,2012-11-17 02:53:00
10:53 PM,30.9,25.0,79,30.42,10.0,North,3.5,-,N/A,,Clear,350,2012-11-17 03:53:00
11:53 PM,34.0,24.1,67,30.43,10.0,NNE,4.6,-,N/A,,Clear,20,2012-11-17 04:53:00